This is the latest recevied weather packets stored in our database for station/object SP6PGH-13. If no packets are shown the sender has not sent any weather packets the latest 10 day(s).
| Time | Temp. | Humidity | Pressure | Rain* | Wind** | Luminosity | Snow |
|---|---|---|---|---|---|---|---|
| 1787854396 | 20° C | 52% | 1005.4 hPa | - | - | - | - |
| 1787853495 | 20.56° C | 52% | 1005.6 hPa | - | - | 1 W/m² | - |
| 1787852594 | 21.67° C | 50% | 1005.4 hPa | - | - | 3 W/m² | - |
| 1787851692 | 22.22° C | 46% | 1005.5 hPa | - | - | 8 W/m² | - |
| 1787850791 | 23.33° C | 44% | 1005.3 hPa | - | - | 16 W/m² | - |
| 1787849890 | 25° C | 40% | 1005.4 hPa | - | - | 29 W/m² | - |
| 1787848988 | 25° C | 40% | 1005.4 hPa | - | - | 36 W/m² | - |
| 1787848087 | 25.56° C | 37% | 1005.4 hPa | - | - | 49 W/m² | - |
| 1787847187 | 25.56° C | 38% | 1005.4 hPa | - | - | 56 W/m² | - |
| 1787846286 | 26.67° C | 36% | 1005.5 hPa | - | - | 127 W/m² | - |
| 1787845384 | 26.11° C | 37% | 1005.6 hPa | - | - | 159 W/m² | - |
| 1787844483 | 26.67° C | 38% | 1005.7 hPa | - | - | 201 W/m² | - |
| 1787843582 | 26.67° C | 36% | 1005.7 hPa | - | - | 226 W/m² | - |
| 1787842681 | 26.67° C | 37% | 1005.6 hPa | - | - | 281 W/m² | - |
| 1787841779 | 27.22° C | 37% | 1005.6 hPa | - | - | 320 W/m² | - |
| 1787840879 | 26.67° C | 38% | 1005.6 hPa | - | - | 357 W/m² | - |
| 1787839977 | 26.67° C | 38% | 1005.6 hPa | - | - | 397 W/m² | - |
| 1787839076 | 26.67° C | 38% | 1005.6 hPa | - | - | 440 W/m² | - |
| 1787838174 | 26.67° C | 38% | 1005.6 hPa | - | - | 472 W/m² | - |
| 1787837274 | 26.67° C | 39% | 1005.8 hPa | - | - | 504 W/m² | - |
| 1787836372 | 25.56° C | 40% | 1006 hPa | - | - | 536 W/m² | - |
| 1787835471 | 26.67° C | 38% | 1005.9 hPa | - | - | 573 W/m² | - |
| 1787834570 | 26.11° C | 38% | 1006 hPa | - | - | 597 W/m² | - |
| 1787833666 | 26.11° C | 38% | 1005.9 hPa | - | - | 613 W/m² | - |
| 1787832764 | 25.56° C | 40% | 1006.3 hPa | - | - | 631 W/m² | - |
* Rain since midnight (hover to see other rain measurements)
** Current wind speed in m/s (hover to see current wind gust speed)